DW3664 Weather Reports


Display with metric or nautical units.
time (UTC)temp
F
wind
direction
speed
MPH
gust
MPH
rain 1hr
in
rain 24hr
in
rain mn
in
humidity
%
barometer
mb
20260505182904 60 220 1.0 4.0 0.00 0.00 0.00 65 1015.8
20260505182435 60 268 1.0 4.0 0.00 0.00 0.00 65 1015.8
20260505181543 59 233 2.0 6.0 0.00 0.00 0.00 66 1015.8
20260505180904 59 164 3.0 6.0 0.00 0.00 0.00 65 1015.8
20260505180432 59 97 1.0 5.0 0.00 0.00 0.00 66 1015.8
20260505175543 59 240 1.0 5.0 0.00 0.00 0.00 67 1015.8
20260505174903 59 100 3.0 5.0 0.00 0.00 0.00 66 1015.8
20260505174223 58 127 2.0 5.0 0.00 0.00 0.00 67 1015.8
20260505173755 58 173 3.0 5.0 0.00 0.00 0.00 68 1015.8
20260505172903 58 168 2.0 5.0 0.00 0.00 0.00 69 1015.8
20260505172436 57 148 2.0 5.0 0.00 0.00 0.00 70 1015.8
20260505171543 57 165 2.0 5.0 0.00 0.00 0.00 70 1015.8
20260505170903 57 137 2.0 6.0 0.00 0.00 0.00 71 1015.4
20260505170433 57 164 2.0 6.0 0.00 0.00 0.00 72 1015.4
20260505165543 56 158 3.0 6.0 0.00 0.00 0.00 72 1015.4
20260505164903 57 168 3.0 6.0 0.00 0.00 0.00 71 1015.4
20260505164223 56 193 2.0 5.0 0.00 0.00 0.00 72 1015.4
20260505163543 56 220 1.0 5.0 0.00 0.00 0.00 73 1015.4
20260505162903 56 179 2.0 4.0 0.00 0.00 0.00 73 1015.4
20260505162437 56 192 1.0 5.0 0.00 0.00 0.00 74 1015.4
20260505161543 56 174 3.0 5.0 0.00 0.00 0.00 72 1015.4
20260505160906 56 141 2.0 4.0 0.00 0.00 0.00 74 1015.4
20260505160223 56 90 2.0 4.0 0.00 0.00 0.00 75 1015.4
20260505152903 55 140 1.0 4.0 0.00 0.00 0.00 78 1015.4
20260505152223 55 138 1.0 3.0 0.00 0.00 0.00 79 1015.4
20260505151753 54 102 1.0 3.0 0.00 0.00 0.00 80 1015.1
20260505150903 54 343 0.0 3.0 0.00 0.00 0.00 81 1015.1
20260505150223 54 91 1.0 3.0 0.00 0.00 0.00 82 1015.1
20260505140223 53 183 2.0 4.0 0.00 0.00 0.00 83 1014.7
20260505130222 54 93 1.0 2.0 0.00 0.00 0.00 80 1014.4
20260505124902 54 203 1.0 2.0 0.00 0.00 0.00 79 1014.1
20260505124222 54 196 1.0 2.0 0.00 0.00 0.00 79 1014.1
20260505123542 54 183 0.0 2.0 0.00 0.00 0.00 79 1014.1
20260505122902 54 267 1.0 1.0 0.00 0.00 0.00 79 1014.1
20260505122222 54 208 0.0 1.0 0.00 0.00 0.00 79 1014.1
20260505121755 54 223 0.0 1.0 0.00 0.00 0.00 79 1014.1
20260505121116 54 243 1.0 2.0 0.00 0.00 0.00 79 1014.1
20260505120222 54 260 1.0 1.0 0.00 0.00 0.00 79 1014.1
20260505115543 54 306 1.0 2.0 0.00 0.00 0.00 79 1014.1
20260505114902 54 191 1.0 2.0 0.00 0.00 0.00 79 1014.1
20260505114222 54 155 1.0 2.0 0.00 0.00 0.00 79 1014.1
20260505113542 54 253 1.0 1.0 0.00 0.00 0.00 79 1014.1
20260505112903 54 247 0.0 2.0 0.00 0.00 0.00 79 1014.1
20260505112223 54 242 1.0 3.0 0.00 0.00 0.00 79 1014.1
20260505111543 54 258 1.0 3.0 0.00 0.00 0.00 79 1014.1
20260505110903 54 250 0.0 2.0 0.00 0.00 0.00 79 1013.7
20260505110223 54 326 1.0 2.0 0.00 0.00 0.00 79 1013.7
20260505101543 53 286 2.0 4.0 0.00 0.00 0.00 81 1013.7
20260505100903 53 273 2.0 4.0 0.00 0.00 0.00 81 1013.4
20260505100223 53 255 0.0 4.0 0.00 0.00 0.00 81 1013.4
20260505095544 53 280 2.0 4.0 0.00 0.00 0.00 81 1013.4
20260505094903 53 284 2.0 3.0 0.00 0.00 0.00 81 1013.4
20260505094224 54 323 1.0 2.0 0.00 0.00 0.00 80 1013.4
20260505093755 53 338 1.0 2.0 0.00 0.00 0.00 81 1013.4
20260505092903 53 295 1.0 2.0 0.00 0.00 0.00 81 1013.4
20260505092223 54 300 1.0 2.0 0.00 0.00 0.00 80 1013.4
20260505091543 54 293 1.0 2.0 0.00 0.00 0.00 80 1013.4
20260505090903 54 4 1.0 2.0 0.00 0.00 0.00 80 1013.0
20260505090223 54 8 1.0 2.0 0.00 0.00 0.00 80 1013.0
20260505085543 54 11 1.0 2.0 0.00 0.00 0.00 80 1013.0
20260505084903 54 346 1.0 1.0 0.00 0.00 0.00 81 1013.0
20260505084223 54 192 0.0 2.0 0.00 0.00 0.00 80 1013.0
20260505083544 54 327 1.0 2.0 0.00 0.00 0.00 80 1013.0
20260505082903 54 6 0.0 3.0 0.00 0.00 0.00 79 1013.0
20260505082223 55 293 2.0 3.0 0.00 0.00 0.00 78 1013.0
20260505081543 55 260 1.0 4.0 0.00 0.00 0.00 78 1013.0
20260505080903 55 290 2.0 4.0 0.00 0.00 0.00 77 1013.0
20260505080223 55 291 2.0 4.0 0.00 0.00 0.00 76 1012.7
20260505075543 56 276 2.0 6.0 0.00 0.00 0.00 76 1012.7
20260505074903 56 276 3.0 6.0 0.00 0.00 0.00 75 1012.7
20260505074222 56 280 3.0 4.0 0.00 0.00 0.00 75 1012.7
20260505073542 56 270 1.0 3.0 0.00 0.00 0.00 76 1012.4
20260505072902 56 238 1.0 3.0 0.00 0.00 0.00 75 1012.4
20260505072222 57 303 1.0 3.0 0.00 0.00 0.00 75 1012.4
20260505071542 57 290 1.0 2.0 0.00 0.00 0.00 75 1012.0
20260505070902 57 243 1.0 2.0 0.00 0.00 0.00 74 1012.0
20260505070222 57 294 1.0 4.0 0.00 0.00 0.00 74 1012.0
20260505065542 58 277 2.0 4.0 0.00 0.00 0.00 74 1012.0
20260505064902 58 271 1.0 4.0 0.00 0.00 0.00 73 1012.0
20260505064222 58 274 2.0 4.0 0.00 0.00 0.00 73 1011.7
20260505063751 58 240 1.0 3.0 0.00 0.00 0.00 73 1011.7
20260505062902 58 272 2.0 7.0 0.00 0.00 0.00 72 1011.7
20260505062222 58 275 2.0 4.0 0.00 0.00 0.00 72 1011.3
20260505061542 59 264 1.0 4.0 0.00 0.00 0.00 72 1011.3
20260505060902 59 259 2.0 4.0 0.00 0.00 0.00 72 1011.3
20260505060222 59 238 1.0 5.0 0.00 0.00 0.00 71 1011.3
20260505055542 59 251 1.0 6.0 0.00 0.00 0.00 71 1011.3
20260505054902 60 235 2.0 6.0 0.00 0.00 0.00 70 1011.3
20260505054222 60 265 2.0 6.0 0.00 0.00 0.00 69 1011.3
20260505053542 60 275 3.0 6.0 0.00 0.00 0.00 69 1011.3
20260505052902 61 271 2.0 6.0 0.00 0.00 0.00 68 1011.0
20260505052222 61 270 2.0 6.0 0.00 0.00 0.00 68 1011.0
20260505051542 62 269 3.0 5.0 0.00 0.00 0.00 67 1011.0
20260505051115 62 256 2.0 7.0 0.00 0.00 0.00 66 1011.0
20260505050436 62 267 2.0 7.0 0.00 0.00 0.00 66 1011.0
20260505041542 66 249 2.0 4.0 0.00 0.00 0.00 59 1010.3
20260505040902 67 224 2.0 5.0 0.00 0.00 0.00 58 1010.3
20260505040436 67 246 2.0 6.0 0.00 0.00 0.00 59 1010.3
20260505035751 67 264 3.0 6.0 0.00 0.00 0.00 59 1010.0
20260505034902 68 205 2.0 3.0 0.00 0.00 0.00 59 1010.0
20260505034222 68 209 1.0 6.0 0.00 0.00 0.00 60 1009.6
20260505033542 68 189 1.0 4.0 0.00 0.00 0.00 59 1009.6
20260505032902 69 202 1.0 3.0 0.00 0.00 0.00 58 1009.6
20260505032222 69 197 1.0 5.0 0.00 0.00 0.00 57 1009.3
20260505031542 70 174 2.0 5.0 0.00 0.00 0.00 56 1009.3
20260505030902 70 196 1.0 4.0 0.00 0.00 0.00 56 1009.3
20260505030222 71 187 1.0 6.0 0.00 0.00 0.00 55 1009.3
20260505025752 72 166 3.0 6.0 0.00 0.00 0.00 54 1009.3
20260505024903 72 166 2.0 6.0 0.00 0.00 0.00 54 1009.3
20260505024222 72 164 2.0 5.0 0.00 0.00 0.00 53 1009.3
20260505023542 73 206 1.0 5.0 0.00 0.00 0.00 52 1008.9
20260505022902 73 196 2.0 4.0 0.00 0.00 0.00 52 1008.9
20260505022435 74 214 1.0 4.0 0.00 0.00 0.00 53 1008.9
20260505021542 73 169 2.0 4.0 0.00 0.00 0.00 54 1008.9
20260505021111 73 145 1.0 5.0 0.00 0.00 0.00 53 1008.9
20260505020222 73 178 2.0 6.0 0.00 0.00 0.00 53 1008.9
20260505015543 74 166 2.0 4.0 0.00 0.00 0.00 52 1008.9
20260505015114 74 202 1.0 5.0 0.00 0.00 0.00 52 1008.9
20260505014222 74 188 2.0 9.0 0.00 0.00 0.00 53 1008.9
20260505013542 73 160 4.0 9.0 0.00 0.00 0.00 53 1008.9
20260505012902 74 156 4.0 8.0 0.00 0.00 0.00 53 1008.9
20260505012222 73 169 4.0 9.0 0.00 0.00 0.00 53 1008.9
20260505011542 74 162 6.0 9.0 0.00 0.00 0.00 53 1008.9
20260505010902 74 174 5.0 11.0 0.00 0.00 0.00 52 1009.3
20260505010222 74 143 4.0 7.0 0.00 0.00 0.00 52 1009.3
20260505005545 74 165 4.0 9.0 0.00 0.00 0.00 52 1009.3
20260505004902 74 167 4.0 9.0 0.00 0.00 0.00 52 1009.3
20260505004221 75 176 4.0 9.0 0.00 0.00 0.00 50 1009.3
20260505003542 74 144 4.0 10.0 0.00 0.00 0.00 51 1009.3
20260505002902 75 167 5.0 10.0 0.00 0.00 0.00 50 1009.3
20260505002224 75 189 3.0 7.0 0.00 0.00 0.00 50 1009.3
20260505001542 76 210 2.0 10.0 0.00 0.00 0.00 50 1009.3
20260505000902 75 133 6.0 10.0 0.00 0.00 0.00 52 1009.3
20260505000226 74 164 6.0 10.0 0.00 0.00 0.00 51 1009.3
20260504235754 75 154 4.0 9.0 0.00 0.00 0.00 50 1009.6
20260504235115 75 163 5.0 10.0 0.00 0.00 0.00 50 1009.6
20260504234436 75 198 3.0 7.0 0.00 0.00 0.00 50 1009.6
20260504233542 76 212 3.0 10.0 0.00 0.00 0.00 49 1009.6
20260504232902 74 168 5.0 12.0 0.00 0.00 0.00 50 1009.6
20260504232222 75 137 3.0 9.0 0.00 0.00 0.00 48 1009.6
20260504231753 75 167 3.0 9.0 0.00 0.00 0.00 49 1009.6
20260504230902 74 177 3.0 10.0 0.00 0.00 0.00 49 1010.0
20260504230222 75 234 3.0 6.0 0.00 0.00 0.00 48 1010.0
20260504225545 75 212 2.0 7.0 0.00 0.00 0.00 47 1010.0
20260504224902 75 243 2.0 5.0 0.00 0.00 0.00 47 1010.0
20260504224222 75 213 2.0 5.0 0.00 0.00 0.00 47 1010.3
20260504223542 74 237 1.0 5.0 0.00 0.00 0.00 49 1010.3
20260504222902 73 163 2.0 8.0 0.00 0.00 0.00 48 1010.3
20260504222222 73 173 4.0 8.0 0.00 0.00 0.00 49 1010.3
20260504221542 72 244 2.0 7.0 0.00 0.00 0.00 50 1010.3
20260504220902 72 94 3.0 7.0 0.00 0.00 0.00 50 1010.6
20260504220435 72 159 3.0 7.0 0.00 0.00 0.00 49 1010.6
20260504215542 72 133 2.0 7.0 0.00 0.00 0.00 50 1010.6
20260504214902 71 109 2.0 8.0 0.00 0.00 0.00 50 1010.6
20260504214222 71 176 3.0 8.0 0.00 0.00 0.00 50 1011.0
20260504213542 71 183 4.0 8.0 0.00 0.00 0.00 50 1011.0
20260504213113 70 131 2.0 7.0 0.00 0.00 0.00 51 1011.0
20260504212222 71 139 4.0 7.0 0.00 0.00 0.00 49 1011.0
20260504211542 70 137 2.0 6.0 0.00 0.00 0.00 51 1011.0
20260504210902 70 215 3.0 8.0 0.00 0.00 0.00 51 1011.3
20260504210222 69 133 2.0 6.0 0.00 0.00 0.00 52 1011.3
20260504205542 70 189 2.0 8.0 0.00 0.00 0.00 50 1011.7
20260504205117 69 159 4.0 8.0 0.00 0.00 0.00 52 1011.7
20260504204222 68 2 2.0 8.0 0.00 0.00 0.00 53 1011.7
20260504203542 68 70 2.0 8.0 0.00 0.00 0.00 54 1012.0
20260504202902 68 187 4.0 7.0 0.00 0.00 0.00 54 1012.0
20260504202222 67 45 3.0 9.0 0.00 0.00 0.00 55 1012.0
20260504201542 66 172 3.0 8.0 0.00 0.00 0.00 56 1012.0
20260504200902 65 174 5.0 8.0 0.00 0.00 0.00 56 1012.0
20260504200221 66 118 3.0 8.0 0.00 0.00 0.00 55 1012.4
20260504195541 66 78 2.0 7.0 0.00 0.00 0.00 56 1012.4
20260504195113 65 144 1.0 6.0 0.00 0.00 0.00 57 1012.4
20260504194223 65 137 2.0 8.0 0.00 0.00 0.00 58 1012.4
20260504193754 64 149 3.0 9.0 0.00 0.00 0.00 58 1012.4
20260504192901 65 101 1.0 9.0 0.00 0.00 0.00 58 1012.4
20260504192435 64 130 2.0 6.0 0.00 0.00 0.00 60 1012.4
20260504191541 63 111 4.0 9.0 0.00 0.00 0.00 61 1012.7
20260504190901 62 162 4.0 9.0 0.00 0.00 0.00 62 1012.7
20260504190221 62 145 3.0 7.0 0.00 0.00 0.00 63 1012.7
20260504185541 62 152 4.0 7.0 0.00 0.00 0.00 62 1012.7
20260504184901 62 160 2.0 6.0 0.00 0.00 0.00 63 1012.7
20260504184434 61 275 2.0 7.0 0.00 0.00 0.00 66 1012.7
20260504183542 61 79 1.0 7.0 0.00 0.00 0.00 66 1012.7